International Skating Union - Official Site

ISU World Allround Championships 2016
March 5-6, 2016

Draw | Lap Times | Index | Classification

Referee: Rick  HUNT  (CAN)
Starter: Roman  DANILOV  (RUS)
StartTime: EndTime: Air Temp: Ice Temp: Humidity:
13:50 15:46 15.2℃ -7℃ 64%
Result 5000m Men
Rankings as of Mar 5 2016 7:28PM
Rank: No.: Name: Nation: Time: Behind: Points:
1 18 Sven  Kramer NED NED 6:14.13200m - 19.14 - (19.1)
600m - 48.81 - (29.6)
1000m - 1:18.77 - (29.9)
1400m - 1:48.06 - (29.2)
1800m - 2:17.53 - (29.4)
2200m - 2:46.95 - (29.4)
2600m - 3:16.39 - (29.4)
3000m - 3:45.81 - (29.4)
3400m - 4:15.41 - (29.6)
3800m - 4:44.75 - (29.3)
4200m - 5:14.48 - (29.7)
4600m - 5:44.17 - (29.6)
5000m - 6:14.13 - (29.9)
37.413
2 23 Sverre Lunde  Pedersen NOR NOR 6:16.89200m - 18.69 - (18.6)
600m - 48.36 - (29.6)
1000m - 1:18.08 - (29.7)
1400m - 1:48.16 - (30.0)
1800m - 2:17.98 - (29.8)
2200m - 2:47.72 - (29.7)
2600m - 3:17.56 - (29.8)
3000m - 3:47.35 - (29.7)
3400m - 4:16.96 - (29.6)
3800m - 4:46.65 - (29.6)
4200m - 5:16.37 - (29.7)
4600m - 5:46.32 - (29.9)
5000m - 6:16.89 - (30.5)
2.76 37.689
3 16 Jan  Blokhuijsen NED NED 6:17.80200m - 18.46 - (18.4)
600m - 47.75 - (29.2)
1000m - 1:17.44 - (29.6)
1400m - 1:47.44 - (30.0)
1800m - 2:17.33 - (29.8)
2200m - 2:47.27 - (29.9)
2600m - 3:17.10 - (29.8)
3000m - 3:47.22 - (30.1)
3400m - 4:17.81 - (30.5)
3800m - 4:47.93 - (30.1)
4200m - 5:17.80 - (29.8)
4600m - 5:47.81 - (30.0)
5000m - 6:17.80 - (29.9)
3.67 37.780
4 3 Ted-Jan  Bloemen CAN CAN 6:19.84200m - 18.82 - (18.8)
600m - 48.01 - (29.1)
1000m - 1:17.30 - (29.2)
1400m - 1:46.69 - (29.3)
1800m - 2:16.11 - (29.4)
2200m - 2:45.75 - (29.6)
2600m - 3:15.57 - (29.8)
3000m - 3:45.55 - (29.9)
3400m - 4:15.70 - (30.1)
3800m - 4:46.35 - (30.6)
4200m - 5:17.12 - (30.7)
4600m - 5:48.10 - (30.9)
5000m - 6:19.84 - (31.7)
5.71 37.984
5 6 Patrick  Beckert GER GER 6:21.36200m - 19.10 - (19.1)
600m - 48.14 - (29.0)
1000m - 1:17.46 - (29.3)
1400m - 1:47.18 - (29.7)
1800m - 2:17.21 - (30.0)
2200m - 2:47.33 - (30.1)
2600m - 3:17.54 - (30.2)
3000m - 3:48.14 - (30.6)
3400m - 4:18.97 - (30.8)
3800m - 4:49.80 - (30.8)
4200m - 5:20.39 - (30.5)
4600m - 5:50.85 - (30.4)
5000m - 6:21.36 - (30.5)
7.23 38.136
6 5 Alexis  Contin FRA FRA 6:23.60200m - 18.96 - (18.9)
600m - 47.95 - (28.9)
1000m - 1:17.85 - (29.9)
1400m - 1:47.67 - (29.8)
1800m - 2:17.70 - (30.0)
2200m - 2:47.92 - (30.2)
2600m - 3:18.27 - (30.3)
3000m - 3:48.54 - (30.2)
3400m - 4:19.12 - (30.5)
3800m - 4:49.80 - (30.6)
4200m - 5:20.60 - (30.8)
4600m - 5:51.85 - (31.2)
5000m - 6:23.60 - (31.7)
9.47 38.360
7 9 Andrea  Giovannini ITA ITA 6:25.70200m - 19.00 - (19.0)
600m - 48.61 - (29.6)
1000m - 1:19.21 - (30.6)
1400m - 1:49.85 - (30.6)
1800m - 2:20.05 - (30.2)
2200m - 2:50.46 - (30.4)
2600m - 3:21.02 - (30.5)
3000m - 3:51.71 - (30.6)
3400m - 4:22.28 - (30.5)
3800m - 4:53.00 - (30.7)
4200m - 5:23.84 - (30.8)
4600m - 5:54.77 - (30.9)
5000m - 6:25.70 - (30.9)
11.57 38.570
8 20 Håvard  Bøkko NOR NOR 6:27.97200m - 18.70 - (18.7)
600m - 48.39 - (29.6)
1000m - 1:18.58 - (30.1)
1400m - 1:49.03 - (30.4)
1800m - 2:19.27 - (30.2)
2200m - 2:49.69 - (30.4)
2600m - 3:20.31 - (30.6)
3000m - 3:50.88 - (30.5)
3400m - 4:21.68 - (30.8)
3800m - 4:52.83 - (31.1)
4200m - 5:24.15 - (31.3)
4600m - 5:55.97 - (31.8)
5000m - 6:27.97 - (32.0)
13.84 38.797
9 22 Simen Spieler  Nilsen NOR NOR 6:30.52200m - 19.13 - (19.1)
600m - 49.28 - (30.1)
1000m - 1:19.97 - (30.6)
1400m - 1:50.52 - (30.5)
1800m - 2:21.71 - (31.1)
2200m - 2:52.79 - (31.0)
2600m - 3:23.91 - (31.1)
3000m - 3:54.93 - (31.0)
3400m - 4:26.10 - (31.1)
3800m - 4:57.17 - (31.0)
4200m - 5:28.24 - (31.0)
4600m - 5:59.36 - (31.1)
5000m - 6:30.52 - (31.1)
16.39 39.052
10 12 Nicola  Tumolero ITA ITA 6:33.50200m - 19.75 - (19.7)
600m - 50.33 - (30.5)
1000m - 1:21.58 - (31.2)
1400m - 1:52.38 - (30.8)
1800m - 2:23.23 - (30.8)
2200m - 2:54.12 - (30.8)
2600m - 3:25.09 - (30.9)
3000m - 3:56.21 - (31.1)
3400m - 4:27.52 - (31.3)
3800m - 4:58.86 - (31.3)
4200m - 5:30.34 - (31.4)
4600m - 6:01.95 - (31.6)
5000m - 6:33.50 - (31.5)
19.37 39.350
11 15 Haralds  Silovs LAT LAT 6:34.41200m - 19.03 - (19.0)
600m - 49.00 - (29.9)
1000m - 1:19.83 - (30.8)
1400m - 1:50.94 - (31.1)
1800m - 2:22.32 - (31.3)
2200m - 2:53.07 - (30.7)
2600m - 3:23.96 - (30.8)
3000m - 3:55.11 - (31.1)
3400m - 4:26.45 - (31.3)
3800m - 4:57.76 - (31.3)
4200m - 5:29.17 - (31.4)
4600m - 6:01.44 - (32.2)
5000m - 6:34.41 - (32.9)
20.28 39.441
12 24 Zbigniew  Brodka POL POL 6:34.55200m - 18.96 - (18.9)
600m - 48.42 - (29.4)
1000m - 1:18.75 - (30.3)
1400m - 1:49.58 - (30.8)
1800m - 2:20.07 - (30.4)
2200m - 2:51.08 - (31.0)
2600m - 3:22.22 - (31.1)
3000m - 3:53.44 - (31.2)
3400m - 4:25.10 - (31.6)
3800m - 4:56.95 - (31.8)
4200m - 5:28.93 - (31.9)
4600m - 6:01.32 - (32.3)
5000m - 6:34.55 - (33.2)
20.42 39.455
13 7 Moritz  Geisreiter GER GER 6:35.01200m - 19.26 - (19.2)
600m - 49.33 - (30.0)
1000m - 1:19.93 - (30.6)
1400m - 1:50.59 - (30.6)
1800m - 2:21.19 - (30.6)
2200m - 2:52.08 - (30.8)
2600m - 3:23.27 - (31.1)
3000m - 3:54.95 - (31.6)
3400m - 4:26.83 - (31.8)
3800m - 4:58.77 - (31.9)
4200m - 5:30.79 - (32.0)
4600m - 6:03.02 - (32.2)
5000m - 6:35.01 - (31.9)
20.88 39.501
14 25 Konrad  Niedzwiedzki POL POL 6:35.87200m - 19.26 - (19.2)
600m - 49.46 - (30.2)
1000m - 1:20.15 - (30.6)
1400m - 1:51.39 - (31.2)
1800m - 2:22.55 - (31.1)
2200m - 2:53.98 - (31.4)
2600m - 3:25.35 - (31.3)
3000m - 3:57.16 - (31.8)
3400m - 4:28.86 - (31.7)
3800m - 5:00.66 - (31.8)
4200m - 5:32.52 - (31.8)
4600m - 6:04.49 - (31.9)
5000m - 6:35.87 - (31.3)
21.74 39.587
15 28 Sergey  Gryaztsov RUS RUS 6:36.42200m - 19.30 - (19.3)
600m - 50.28 - (30.9)
1000m - 1:20.92 - (30.6)
1400m - 1:51.63 - (30.7)
1800m - 2:22.72 - (31.0)
2200m - 2:53.95 - (31.2)
2600m - 3:25.16 - (31.2)
3000m - 3:56.45 - (31.2)
3400m - 4:28.10 - (31.6)
3800m - 4:59.86 - (31.7)
4200m - 5:31.90 - (32.0)
4600m - 6:04.23 - (32.3)
5000m - 6:36.42 - (32.1)
22.29 39.642
16 10 Michele  Malfatti ITA ITA 6:36.46200m - 19.42 - (19.4)
600m - 50.06 - (30.6)
1000m - 1:21.50 - (31.4)
1400m - 1:52.29 - (30.7)
1800m - 2:23.16 - (30.8)
2200m - 2:54.04 - (30.8)
2600m - 3:25.31 - (31.2)
3000m - 3:56.58 - (31.2)
3400m - 4:28.19 - (31.6)
3800m - 4:59.81 - (31.6)
4200m - 5:31.79 - (31.9)
4600m - 6:03.90 - (32.1)
5000m - 6:36.46 - (32.5)
22.33 39.646
17 27 Jan  Szymanski POL POL 6:37.13200m - 19.85 - (19.8)
600m - 50.52 - (30.6)
1000m - 1:21.53 - (31.0)
1400m - 1:52.20 - (30.6)
1800m - 2:23.25 - (31.0)
2200m - 2:54.62 - (31.3)
2600m - 3:25.67 - (31.0)
3000m - 3:56.89 - (31.2)
3400m - 4:28.26 - (31.3)
3800m - 5:00.21 - (31.9)
4200m - 5:31.84 - (31.6)
4600m - 6:04.42 - (32.5)
5000m - 6:37.13 - (32.7)
23.00 39.713
18 14 Shane  Williamson JPN JPN 6:37.60200m - 18.56 - (18.5)
600m - 48.52 - (29.9)
1000m - 1:19.28 - (30.7)
1400m - 1:50.02 - (30.7)
1800m - 2:21.37 - (31.3)
2200m - 2:52.87 - (31.5)
2600m - 3:24.52 - (31.6)
3000m - 3:56.06 - (31.5)
3400m - 4:27.51 - (31.4)
3800m - 4:59.33 - (31.8)
4200m - 5:31.41 - (32.0)
4600m - 6:03.89 - (32.4)
5000m - 6:37.60 - (33.7)
23.47 39.760
19 4 Yiming  Liu CHN CHN 6:37.87200m - 18.81 - (18.8)
600m - 50.08 - (31.2)
1000m - 1:21.61 - (31.5)
1400m - 1:52.90 - (31.2)
1800m - 2:23.67 - (30.7)
2200m - 2:54.35 - (30.6)
2600m - 3:25.27 - (30.9)
3000m - 3:56.57 - (31.3)
3400m - 4:28.16 - (31.5)
3800m - 5:00.24 - (32.0)
4200m - 5:32.41 - (32.1)
4600m - 6:04.89 - (32.4)
5000m - 6:37.87 - (32.9)
23.74 39.787
20 2 Vitaly  Mikhailov BLR BLR 6:39.15200m - 20.10 - (20.1)
600m - 51.15 - (31.0)
1000m - 1:22.05 - (30.9)
1400m - 1:53.14 - (31.0)
1800m - 2:24.18 - (31.0)
2200m - 2:56.09 - (31.9)
2600m - 3:27.50 - (31.4)
3000m - 3:58.96 - (31.4)
3400m - 4:30.62 - (31.6)
3800m - 5:02.38 - (31.7)
4200m - 5:34.47 - (32.0)
4600m - 6:06.93 - (32.4)
5000m - 6:39.15 - (32.2)
25.02 39.915
21 29 Sergey  Trofimov RUS RUS 6:40.89200m - 19.05 - (19.0)
600m - 48.81 - (29.7)
1000m - 1:19.22 - (30.4)
1400m - 1:49.90 - (30.6)
1800m - 2:20.86 - (30.9)
2200m - 2:51.96 - (31.1)
2600m - 3:23.91 - (31.9)
3000m - 3:56.35 - (32.4)
3400m - 4:29.09 - (32.7)
3800m - 5:01.95 - (32.8)
4200m - 5:34.96 - (33.0)
4600m - 6:07.86 - (32.9)
5000m - 6:40.89 - (33.0)
26.76 40.089
22 13 Shota  Nakamura JPN JPN 6:41.28200m - 18.53 - (18.5)
600m - 48.80 - (30.2)
1000m - 1:19.71 - (30.9)
1400m - 1:50.93 - (31.2)
1800m - 2:22.08 - (31.1)
2200m - 2:53.42 - (31.3)
2600m - 3:24.83 - (31.4)
3000m - 3:56.61 - (31.7)
3400m - 4:28.70 - (32.0)
3800m - 5:01.41 - (32.7)
4200m - 5:34.74 - (33.3)
4600m - 6:07.97 - (33.2)
5000m - 6:41.28 - (33.3)
27.15 40.128
23 1 Bart  Swings BEL BEL DQ200m - 18.84 - (18.8)
600m - 48.30 - (29.4)
1000m - 1:18.25 - (29.9)
1400m - 1:48.26 - (30.0)
1800m - 2:38.76 - (50.5)
2200m - 3:09.87 - (31.1)
2600m - 3:41.04 - (31.1)
3000m - 4:12.47 - (31.4)
3400m - 4:44.47 - (32.0)
3800m - 5:19.36 - (34.8)
4200m - 5:52.30 - (32.9)
4600m - 6:24.52 - (32.2)
5000m - 6:56.40 - (31.8)
-
24 30 Denis  Yuskov RUS RUS DNS -